Altus AFB, OK

3:38 PM CDT on May 26, 2017 (GMT -0500)
Altus Air Force Base

Weather History for KLTS - November, 2011

Change the Weather History Date:

Saturday, November 5, 2011

  Actual Average Record
Temperature  
Mean Temperature 56 °F -  
Max Temperature 69 °F 62 °F 82 °F (2008)
Min Temperature 43 °F 41 °F 31 °F (2010)
Degree Days  
Heating Degree Days 9    
Growing Degree Days 6 (Base 50)    
Moisture  
Dew Point 32 °F    
Average Humidity 43    
Maximum Humidity 74    
Minimum Humidity 25    
Precipitation  
Precipitation 0.00 in - - ()
Sea Level Pressure  
Sea Level Pressure 29.83 in    
Wind  
Wind Speed 15 mph (SE)    
Max Wind Speed 29 mph    
Max Gust Speed 36 mph    
Visibility 10 miles    
Events      
Averages and records for this station are not official NWS values.
T = Trace of Precipitation, MM = Missing Value Source: NWS Daily Summary

Daily Weather History Graph

Daily Weather History Graph

Search for Another Location

Airport or City:

Trip Planner

Search our weather history database for the weather conditions in past years. The results will help you decide how hot, cold, wet, or windy it might be!

Date:

Astronomy

Nov. 05, 2011 Rise Set
Actual Time 8:01 AM CDT 6:39 PM CDT
Civil Twilight 7:34 AM CDT 7:06 PM CDT
Nautical Twilight 7:04 AM CDT 7:35 PM CDT
Astronomical Twilight 6:35 AM CDT 8:05 PM CDT
Moon 3:49 PM CDT (11/5) 3:23 AM CDT (11/5)
Length of Visible Light 11h 31m
Length of Day
10h 38m
Waxing Gibbous, 78% of the Moon is Illuminated
Nov 5
Waxing Gibbous
Nov 10
Full
Nov 18
Last Quarter
Nov 25
New
Dec 2
First Quarter

Hourly Weather History & Observations

Time (CDT) Temp. Windchill Dew Point Humidity Pressure Visibility Wind Dir Wind Speed Gust Speed Precip Events Conditions
12:55 AM 47.3 °F - 28.2 °F 48% 30.00 in 10.0 mi SE 11.5 mph - N/A   Clear
1:55 AM 46.0 °F 41.9 °F 28.9 °F 51% 29.99 in 10.0 mi SSE 8.1 mph - N/A   Clear
2:55 AM 44.4 °F 39.0 °F 29.5 °F 56% 29.97 in 10.0 mi SE 10.4 mph - N/A   Clear
3:55 AM 45.0 °F 40.6 °F 28.6 °F 53% 29.96 in 10.0 mi SE 8.1 mph - N/A   Clear
4:55 AM 45.9 °F 41.2 °F 27.0 °F 48% 29.94 in 10.0 mi SE 9.2 mph - N/A   Clear
5:55 AM 44.2 °F 38.4 °F 27.9 °F 53% 29.92 in 10.0 mi SE 11.5 mph - N/A   Clear
6:55 AM 46.0 °F 40.2 °F 25.5 °F 45% 29.92 in 10.0 mi SE 12.7 mph - N/A   Clear
7:55 AM 43.2 °F 36.6 °F 27.7 °F 54% 29.92 in 10.0 mi SE 12.7 mph - N/A   Clear
8:55 AM 45.3 °F 38.7 °F 27.9 °F 51% 29.91 in 10.0 mi SE 15.0 mph - N/A   Clear
9:55 AM 50.4 °F - 27.0 °F 40% 29.90 in 10.0 mi SE 19.6 mph - N/A   Clear
10:55 AM 55.8 °F - 25.3 °F 31% 29.87 in 10.0 mi SE 25.3 mph 32.2 mph N/A   Clear
11:24 AM 59.0 °F - 26.6 °F 29% 29.86 in 10.0 mi SE 25.3 mph 34.5 mph N/A   Light Drizzle
11:34 AM 59.0 °F - 26.6 °F 29% 29.86 in 10.0 mi SSE 27.6 mph 32.2 mph N/A   Clear
11:55 AM 58.6 °F - 26.1 °F 29% 29.85 in 10.0 mi SSE 28.8 mph 35.7 mph 0.00 in   Clear
12:55 PM 62.2 °F - 27.1 °F 26% 29.82 in 10.0 mi SSE 25.3 mph 34.5 mph N/A   Clear
1:55 PM 63.1 °F - 28.0 °F 27% 29.78 in 10.0 mi SSE 25.3 mph 29.9 mph N/A   Partly Cloudy
2:55 PM 66.7 °F - 29.7 °F 25% 29.74 in 10.0 mi SSE 23.0 mph 33.4 mph N/A   Clear
3:55 PM 68.2 °F - 30.6 °F 25% 29.71 in 10.0 mi SSE 25.3 mph 34.5 mph N/A   Clear
4:55 PM 69.1 °F - 32.4 °F 26% 29.70 in 10.0 mi SSE 28.8 mph - N/A   Clear
5:55 PM 68.5 °F - 36.1 °F 30% 29.69 in 10.0 mi SSE 21.9 mph 32.2 mph N/A   Clear
6:55 PM 64.0 °F - 39.9 °F 41% 29.70 in 10.0 mi SE 16.1 mph - N/A   Clear
7:55 PM 62.4 °F - 42.6 °F 48% 29.69 in 10.0 mi SE 19.6 mph - N/A   Clear
8:55 PM 60.6 °F - 44.1 °F 54% 29.70 in 10.0 mi SE 16.1 mph - N/A   Clear
9:55 PM 59.4 °F - 45.5 °F 60% 29.75 in 10.0 mi SSE 11.5 mph - N/A   Clear
10:55 PM 57.2 °F - 46.4 °F 67% 29.75 in 10.0 mi SE 9.2 mph - N/A   Clear
11:55 PM 55.2 °F - 46.9 °F 74% 29.76 in 10.0 mi SE 9.2 mph - N/A   Clear